TimePDT,TemperatureF,Dew PointF,Humidity,Sea Level PressureIn,VisibilityMPH,Wind Direction,Wind SpeedMPH,Gust SpeedMPH,PrecipitationIn,Events,Conditions,WindDirDegrees,DateUTC
12:56 AM,37.9,30.9,76,30.26,10.0,Calm,Calm,-,N/A,,Clear,0,2013-03-24 07:56:00
1:56 AM,35.1,30.0,82,30.26,10.0,Calm,Calm,-,N/A,,Clear,0,2013-03-24 08:56:00
2:56 AM,34.0,30.9,89,30.26,10.0,Calm,Calm,-,N/A,,Overcast,0,2013-03-24 09:56:00
3:56 AM,35.1,32.0,89,30.25,10.0,Calm,Calm,-,N/A,,Overcast,0,2013-03-24 10:56:00
4:56 AM,36.0,32.0,86,30.23,10.0,Calm,Calm,-,N/A,,Mostly Cloudy,0,2013-03-24 11:56:00
5:56 AM,36.0,32.0,86,30.23,10.0,WNW,5.8,-,N/A,,Scattered Clouds,290,2013-03-24 12:56:00
6:56 AM,37.0,33.1,86,30.23,10.0,NW,4.6,-,N/A,,Mostly Cloudy,320,2013-03-24 13:56:00
7:56 AM,37.0,33.1,86,30.22,10.0,Calm,Calm,-,N/A,,Partly Cloudy,0,2013-03-24 14:56:00
8:56 AM,39.0,35.1,86,30.23,10.0,Calm,Calm,-,N/A,,Clear,0,2013-03-24 15:56:00
9:56 AM,42.1,34.0,73,30.22,10.0,Calm,Calm,-,N/A,,Clear,0,2013-03-24 16:56:00
10:56 AM,44.1,34.0,68,30.21,10.0,Calm,Calm,-,N/A,,Mostly Cloudy,0,2013-03-24 17:56:00
11:56 AM,48.0,34.0,58,30.20,10.0,Variable,3.5,-,N/A,,Mostly Cloudy,0,2013-03-24 18:56:00
12:56 PM,50.0,36.0,59,30.19,10.0,NNW,5.8,-,N/A,,Mostly Cloudy,340,2013-03-24 19:56:00
1:56 PM,52.0,36.0,54,30.17,10.0,NNW,3.5,-,N/A,,Mostly Cloudy,340,2013-03-24 20:56:00
2:56 PM,54.0,34.0,47,30.15,10.0,Variable,4.6,-,N/A,,Scattered Clouds,0,2013-03-24 21:56:00
3:56 PM,55.0,35.1,47,30.14,10.0,NNE,5.8,-,N/A,,Overcast,20,2013-03-24 22:56:00
4:56 PM,55.0,35.1,47,30.12,10.0,Variable,4.6,-,N/A,,Mostly Cloudy,0,2013-03-24 23:56:00
5:56 PM,55.0,36.0,49,30.10,10.0,Calm,Calm,-,N/A,,Mostly Cloudy,0,2013-03-25 00:56:00
6:56 PM,54.0,36.0,51,30.08,10.0,Calm,Calm,-,N/A,,Clear,0,2013-03-25 01:56:00
7:56 PM,51.1,36.0,56,30.08,10.0,North,4.6,-,N/A,,Overcast,360,2013-03-25 02:56:00
8:56 PM,50.0,36.0,59,30.08,10.0,NNW,3.5,-,N/A,,Overcast,330,2013-03-25 03:56:00
9:56 PM,48.0,35.1,61,30.09,10.0,NNW,4.6,-,N/A,,Scattered Clouds,340,2013-03-25 04:56:00
10:56 PM,46.0,35.1,66,30.09,10.0,NNW,4.6,-,N/A,,Clear,330,2013-03-25 05:56:00
11:56 PM,45.0,34.0,65,30.09,10.0,NNW,4.6,-,N/A,,Clear,340,2013-03-25 06:56:00